Tracking 17938 objects as of 21-February-2017
HD Live streaming from Space Station
objects crossing your sky now

COSMOS 1481 DEB

Track COSMOS 1481 DEB now!


NORAD ID: 14192
Int'l Code: 1983-070E
Perigee: 2,051.3 km
Apogee: 37,879.2 km
Inclination: 67.4 °
Period: 708.9 minutes
Semi major axis: 26336 km
RCS: 2.531 m2 (large)
Launch date: July 8, 1983
Source: Commonwealth of Independent States (former USSR) (CIS)
Launch site: PLESETSK MISSILE AND SPACE COMPLEX (PKMTR)

Note: This is SATELLITE DEBRIS
Your satellite tracking list
Your tracking list is empty





NASA's NSSDC Master Catalog

Two Line Element Set (TLE):
1 14192U 83070E   17050.90914035 +.00000388 +00000-0 +00000-0 0  9998
2 14192 067.4231 097.7010 6802005 002.4044 006.9593 02.03129204170475
Source of the keplerian elements: AFSPC